Baseball Grounds of Jacksonville FL US WEATHERSTEM current weather conditions

sailwx.info

Wind from 269 at 1 knots gusting 6

Air temperature 11.8° C
Dewpoint 9.0° C

Last reported at 2020-Jan-25 12:40 UTC.
Time now 2020-Jan-25 14:13 UTC

Location: N 30°19' W 081°39'.
View on Google Maps.

See reports from other nearby stations

  
Tides and Currents Weather Stations Pressure Air Temp Water Temp Dewpoint Dewpoint Depression Visibility Wind Speed Wind Dir Waves Ship Positions
date/time (UTC)wind fromknots sea level pressurealtimeterstation pressurevisibilityair tempwater tempwave heightnotes
2020-Jan-25 12:40 269 1 gusting 6 11.8
2020-Jan-25 12:30 295 1 gusting 7 11.8
2020-Jan-25 12:20 259 3 gusting 8 11.8
2020-Jan-25 12:00 233 2 gusting 10 12.2
2020-Jan-25 11:50 249 3 gusting 7 12.4
2020-Jan-25 11:30 226 6 gusting 8 12.7
2020-Jan-25 11:10 269 5 gusting 9 12.8
2020-Jan-25 10:50 262 2 gusting 6 12.9
2020-Jan-25 10:40 301 6 gusting 7 13.1
2020-Jan-25 10:20 265 5 gusting 7 13.4
2020-Jan-25 10:10 306 3 gusting 10 13.6
2020-Jan-25 09:50 275 3 gusting 11 13.8
2020-Jan-25 09:30 285 9 gusting 15 14.1
2020-Jan-25 09:10 290 4 gusting 12 14.5
2020-Jan-25 09:00 254 6 gusting 10 14.7
2020-Jan-25 08:50 271 5 gusting 13 14.8
2020-Jan-25 08:40 288 4 gusting 11 14.9
2020-Jan-25 08:30 302 4 gusting 11 15.2
2020-Jan-25 08:20 262 6 gusting 8 15.3
2020-Jan-25 08:10 322 2 gusting 11 15.5
2020-Jan-25 07:50 246 6 gusting 8 15.8
2020-Jan-25 07:40 216 4 gusting 7 15.8
2020-Jan-25 07:20 249 2 gusting 6 16.2
2020-Jan-25 07:10 258 3 gusting 9 16.3
2020-Jan-25 07:00 236 3 gusting 11 16.4
2020-Jan-25 06:50 223 7 gusting 13 16.6
2020-Jan-25 06:40 237 4 gusting 8 16.9
2020-Jan-25 06:30 254 4 gusting 9 17.0
2020-Jan-25 06:20 254 3 gusting 8 17.1
2020-Jan-25 06:00 271 6 gusting 12 17.3
2020-Jan-25 05:50 273 6 gusting 14 17.4
2020-Jan-25 05:40 263 6 gusting 13 17.6
2020-Jan-25 05:20 265 3 gusting 20 17.6
2020-Jan-25 05:10 221 13 gusting 17 17.6
2020-Jan-25 05:00 236 6 gusting 14 17.4
2020-Jan-25 04:40 234 4 gusting 6 16.8
2020-Jan-25 04:30 217 3 gusting 6 16.7
2020-Jan-25 04:20 214 3 gusting 5 16.8
2020-Jan-25 04:10 211 3 gusting 4 16.9
2020-Jan-25 04:00 202 1 gusting 4 17.1
2020-Jan-25 03:40 210 4 gusting 8 17.5
2020-Jan-25 03:30 214 5 gusting 6 17.6
2020-Jan-25 03:20 247 2 gusting 6 17.6
2020-Jan-25 03:10 217 2 gusting 6 17.7
2020-Jan-25 02:50 217 3 gusting 6 17.8
2020-Jan-25 02:40 217 3 gusting 6 17.9
2020-Jan-25 02:30 209 5 gusting 7 18.0
2020-Jan-25 02:20 211 5 gusting 7 18.1
2020-Jan-25 02:10 204 4 gusting 6 18.1
2020-Jan-25 02:00 232 2 gusting 6 18.0
2020-Jan-25 01:40 219 2 gusting 6 17.8
2020-Jan-25 01:30 223 3 gusting 5 17.8
2020-Jan-25 01:20 187 2 gusting 4 17.8
2020-Jan-25 01:10 200 3 gusting 6 17.9
2020-Jan-25 01:00 217 3 gusting 6 18.2
2020-Jan-25 00:50 218 2 gusting 5 18.2
2020-Jan-25 00:40 242 3 gusting 5 18.3
2020-Jan-25 00:30 210 3 gusting 6 18.4
2020-Jan-25 00:20 241 2 gusting 5 18.5
2020-Jan-25 00:10 196 1 gusting 5 18.6
2020-Jan-25 00:00 199 2 gusting 5 18.7
2020-Jan-24 23:50 203 3 gusting 6 18.8
2020-Jan-24 23:40 209 5 gusting 6 19.0
2020-Jan-24 23:20 205 4 gusting 8 19.4
2020-Jan-24 23:10 204 4 gusting 8 19.7
2020-Jan-24 23:00 213 6 gusting 7 19.8
2020-Jan-24 22:50 161 4 gusting 8 20.1
2020-Jan-24 22:10 178 6 gusting 11 20.5
2020-Jan-24 21:50 225 2 gusting 7 20.3
2020-Jan-24 21:30 223 5 gusting 9 20.3
2020-Jan-24 21:10 185 6 gusting 12 21.0
2020-Jan-24 20:50 213 6 gusting 10 21.1
2020-Jan-24 20:40 211 3 gusting 19 20.7
2020-Jan-24 20:30 218 5 gusting 12 22.2
2020-Jan-24 20:20 195 7 gusting 8 22.7
2020-Jan-24 19:30 184 6 gusting 12 22.8
2020-Jan-24 19:20 219 4 gusting 9 23.6
2020-Jan-24 18:50 211 4 gusting 10 23.6
2020-Jan-24 18:40 165 6 gusting 13 23.3
2020-Jan-24 18:00 239 2 gusting 12 22.8
2020-Jan-24 17:50 214 7 gusting 11 22.4
2020-Jan-24 17:30 167 4 gusting 9 22.4
2020-Jan-24 17:20 217 6 gusting 13 21.9
2020-Jan-24 17:10 207 6 gusting 12 21.9
2020-Jan-24 17:00 165 7 gusting 13 21.8
2020-Jan-24 16:50 209 6 gusting 11 21.7
2020-Jan-24 16:30 194 4 gusting 9 21.3
2020-Jan-24 16:10 202 6 gusting 8 21.1
2020-Jan-24 15:50 225 3 gusting 7 21.4
2020-Jan-24 15:30 238 3 gusting 6 19.5
2020-Jan-24 15:10 217 3 gusting 6 18.8
2020-Jan-24 15:00 220 2 gusting 7 18.6
2020-Jan-24 14:50 190 5 gusting 6 19.8
2020-Jan-24 14:30 120 0 gusting 8 19.6
2020-Jan-24 14:10 198 2 gusting 6 18.8
2020-Jan-24 14:00 140 4 gusting 5 18.1
2020-Jan-24 13:40 150 0 gusting 5 16.8
2020-Jan-24 13:30 174 0 gusting 2 16.2
2020-Jan-24 13:20 180 0 gusting 2 15.6
2020-Jan-24 13:10 148 0 gusting 2 15.4
2020-Jan-24 12:50 15.5
2020-Jan-24 12:40 111 1 gusting 3 15.4
2020-Jan-24 12:10 067 4 gusting 6 15.2
2020-Jan-24 12:00 066 1 gusting 5 15.3
2020-Jan-24 11:50 073 1 gusting 4 15.4
2020-Jan-24 11:40 061 3 gusting 5 15.5
2020-Jan-24 11:10 053 0 gusting 3 15.5
2020-Jan-24 10:50 059 1 gusting 2 15.0
2020-Jan-24 10:40 086 1 gusting 1 15.2
2020-Jan-24 10:30 086 0 gusting 1 15.2
2020-Jan-24 10:20 106 0 gusting 2 15.0
2020-Jan-24 10:10 074 1 gusting 2 14.7
2020-Jan-24 09:50 074 2 gusting 2 14.6
2020-Jan-24 09:20 14.7
2020-Jan-24 09:10 14.8
2020-Jan-24 08:50 034 0 gusting 2 14.6
2020-Jan-24 08:30 034 0 gusting 1 14.6
2020-Jan-24 08:20 14.6
2020-Jan-24 08:00 034 1 gusting 2 14.6
2020-Jan-24 07:50 034 0 gusting 2 14.5
2020-Jan-24 07:40 034 0 gusting 2 14.6
2020-Jan-24 07:20 034 0 gusting 3 14.5
2020-Jan-24 07:10 005 2 gusting 4 14.6
2020-Jan-24 06:50 321 4 gusting 6 14.5
2020-Jan-24 06:40 339 3 gusting 3 14.4
2020-Jan-24 06:10 350 1 gusting 1 14.4
2020-Jan-24 05:50 017 1 gusting 2 14.4
2020-Jan-24 05:40 017 0 gusting 3 14.4
2020-Jan-24 05:30 027 1 gusting 2 14.4
2020-Jan-24 05:10 027 0 gusting 3 14.5
2020-Jan-24 05:00 027 1 gusting 3 14.5
2020-Jan-24 04:30 043 3 gusting 4 14.6
2020-Jan-24 04:20 062 4 gusting 5 14.6
2020-Jan-24 04:10 073 2 gusting 7 14.7
2020-Jan-24 04:00 056 6 gusting 7 14.7
2020-Jan-24 03:50 066 0 gusting 5 14.7
2020-Jan-24 03:30 061 1 gusting 4 14.6
2020-Jan-24 03:20 040 3 gusting 5 14.4
2020-Jan-24 03:10 048 3 gusting 5 14.3
2020-Jan-24 03:00 040 2 gusting 5 14.2
2020-Jan-24 02:50 005 2 gusting 7 14.1
2020-Jan-24 02:30 036 2 gusting 6 13.9
2020-Jan-24 02:20 034 4 gusting 7 13.9
2020-Jan-24 01:10 036 5 gusting 10 13.2
2020-Jan-24 01:00 040 7 gusting 9 13.1
2020-Jan-24 00:50 023 5 gusting 9 13.1
2020-Jan-24 00:40 061 5 gusting 9 12.9
2020-Jan-24 00:30 048 7 gusting 9 12.9
2020-Jan-24 00:20 045 9 gusting 11 12.8
2020-Jan-24 00:00 042 6 gusting 10 12.8
2020-Jan-23 23:40 028 7 gusting 12 12.8
2020-Jan-23 23:20 040 7 gusting 12 12.8
2020-Jan-23 23:00 050 6 gusting 13 12.8
2020-Jan-23 22:40 011 3 gusting 15 12.8
2020-Jan-23 22:10 017 9 gusting 15 12.9
2020-Jan-23 22:00 036 11 gusting 14 13.1
2020-Jan-23 21:40 344 7 gusting 14 13.3
2020-Jan-23 21:10 024 8 gusting 14 13.4
2020-Jan-23 21:00 055 12 gusting 13 13.6
2020-Jan-23 20:50 046 9 gusting 14 13.6
2020-Jan-23 20:40 036 7 gusting 15 13.6
2020-Jan-23 20:30 049 9 gusting 13 13.7
2020-Jan-23 20:20 050 7 gusting 14 13.8
2020-Jan-23 20:10 036 9 gusting 14 13.7
2020-Jan-23 19:50 041 8 gusting 13 13.8
2020-Jan-23 19:40 038 9 gusting 13 13.7
2020-Jan-23 19:30 036 10 gusting 13 13.8
2020-Jan-23 19:20 040 7 gusting 15 13.8
2020-Jan-23 19:10 044 8 gusting 15 14.0
2020-Jan-23 19:00 032 6 gusting 15 14.2
2020-Jan-23 18:50 039 10 gusting 15 14.3
2020-Jan-23 18:40 022 12 gusting 14 14.4
2020-Jan-23 18:30 360 4 gusting 13 14.5
2020-Jan-23 18:20 030 13 gusting 14 14.4
2020-Jan-23 18:10 061 11 gusting 14 14.5
2020-Jan-23 18:00 036 9 gusting 17 14.5
2020-Jan-23 17:50 031 10 gusting 16 14.7
2020-Jan-23 17:40 041 9 gusting 13 14.9
2020-Jan-23 17:30 046 10 gusting 15 14.9
2020-Jan-23 17:20 043 8 gusting 15 14.8
2020-Jan-23 17:10 028 13 gusting 14 14.7
2020-Jan-23 17:00 040 4 gusting 13 14.8
2020-Jan-23 16:50 039 8 gusting 13 14.4
2020-Jan-23 16:40 046 2 gusting 15 14.3
2020-Jan-23 16:30 038 7 gusting 15 14.4
2020-Jan-23 16:20 046 8 gusting 16 14.6
2020-Jan-23 16:10 044 7 gusting 13 14.7
2020-Jan-23 16:00 064 12 gusting 14 14.6
2020-Jan-23 15:50 050 10 gusting 15 14.4
2020-Jan-23 15:40 043 10 gusting 13 14.4
2020-Jan-23 15:30 045 6 gusting 12 14.3
2020-Jan-23 15:20 053 5 gusting 12 14.2
2020-Jan-23 15:10 030 7 gusting 15 14.1
2020-Jan-23 15:00 058 5 gusting 13 14.0
2020-Jan-23 14:40 069 7 gusting 11 13.6
2020-Jan-23 14:30 034 8 gusting 11 13.4
2020-Jan-23 14:20 041 10 gusting 9 13.3
2020-Jan-23 14:10 013 6 gusting 13 13.3
2020-Jan-23 14:00 040 4 gusting 11 13.2